Back to catalog

SL-14 R/B

AlivePO
NORAD 22237·ROCKET BODY·🇷🇺 Russia

Launched Nov 24, 1992 from Plesetsk Cosmodrome

Loading…

Next Passes (next 24 hours)

TLE

FreshSource: Space-Track

Epoch: Sep 14, 2026, 14:28 UTC

1 22237U 92080B   26257.60339454  .00000276  00000-0  33048-4 0  9998
2 22237  82.5114 213.9178 0017902 318.5462  41.4392 14.80419330822387

Track SL-14 R/B in real time with AllMySat

Download on the App Store